Regional Weather Roundup
Issued by NWS Charleston, SC

Current Version | Previous Version | Graphics & Text | Print | Product List | Glossary On
Versions: 1 2 3 4 5 6 7 8 9 10 11 12 13 14 15 16 17 18 19 20 21 22 23 24 25 26 27 28 29 30 31 32 33 34 35 36 37 38 39 40 41 42 43 44 45 46 47 48 49 50
000
ASUS42 KCHS 222227
RWRCHS

REGIONAL WEATHER ROUNDUP
NATIONAL WEATHER SERVICE CHARLESTON SC
600 PM EDT SUN OCT 22 2017

NOTE: "FAIR" INDICATES FEW OR NO CLOUDS BELOW 12,000 FEET WITH NO
SIGNIFICANT WEATHER AND/OR OBSTRUCTIONS TO VISIBILITY.

NOT ALL STATIONS ARE QUALITY CONTROLLED. USE DATA WITH CAUTION...
ESPECIALLY DEWPOINT OBSERVATIONS.

SCZ027-030-031-034>040-042>050-222300-
...SOUTHEAST SOUTH CAROLINA...

CITY           SKY/WX    TMP DP  RH WIND       PRES   REMARKS
N CHARLESTON   CLOUDY    75  70  84 E7        30.18F
WATERFRONT PRK   N/A     76  71  84 E13       30.03
JOHNS ISLAND   LGT RAIN  73  72  94 VRB7G13   30.19R
PINOPOLIS        N/A     75  70  83 E5        30.13S
MONCKS CORNER  FAIR      73  66  78 E6        30.20R
SUMMERVILLE    DRIZZLE   70  70 100 CALM      30.21R
BEAUFORT MCAS  CLOUDY    73  72  96 MISG      30.17F
BEAUFORT ARPT  CLOUDY    72  70  94 NE9       30.16F
HILTON HEAD IS MOCLDY    73  72  94 N9        30.17S
WALTERBORO     HVY RAIN  70  70 100 E5        30.20S
ALLENDALE      LGT RAIN  72  70  94 NE3         N/A

...SOUTHERN MIDLANDS AND PEE DEE...

CITY           SKY/WX    TMP DP  RH WIND       PRES   REMARKS
GEORGETOWN     MOCLDY    75  68  78 E9        30.23S
KINGSTREE      MOCLDY    73  64  73 CALM      30.21S
ORANGEBURG     CLOUDY    72  69  90 CALM      30.21S
BARNWELL         N/A     72  70  94 N5        30.20S
AIKEN          DRIZZLE   66  66 100 E5        30.25S
MANNING        MOCLDY    73  68  83 MISG      30.21S
COLUMBIA       CLOUDY    77  64  64 S5        30.20S
SUMTER         CLOUDY    76  64  65 E6G23     30.19S
FLORENCE       CLOUDY    76  61  59 SE7       30.23R
MYRTLE BEACH   CLEAR     75  67  76 E10       30.25
N MYRTLE BEACH CLEAR     76  64  66 E12       30.23F

$$

GAZ063-065-086>088-099>101-113>116-118-119-134>141-150-222300-
...SOUTHEAST GEORGIA...

CITY           SKY/WX    TMP DP  RH WIND       PRES   REMARKS
SAVANNAH ARPT  MOCLDY    79  72  79 E12       30.14F
HUNTER AAF     PTCLDY    78  72  82 E8        30.12F
FORT STEWART   MOCLDY    79  71  74 E9        30.11F
STATESBORO     CLOUDY    76  68  76 NE5       30.15S
SYLVANIA       MOCLDY    75  73  93 E5        30.17S
CLAXTON        FAIR      77  74  90 CALM      30.14S

...CSRA...CENTRAL AND FAR SOUTHEAST GEORGIA...

CITY           SKY/WX    TMP DP  RH WIND       PRES   REMARKS
THOMSON        CLOUDY    68  66  95 SE8       30.24F
AUGUSTA-BUSH   CLOUDY    73  68  84 CALM      30.19S
AUGUSTA-DANIEL CLOUDY    71  67  87 NE7       30.21S
SWAINSBORO     FAIR      73  72  94 MISG      30.16F
VIDALIA        CLOUDY    77  72  83 NE7       30.14S
EASTMAN        FAIR      80  58  47 NE8       30.14F
HAZLEHURST     FAIR      81  63  55 NE8       30.11R
ALMA           PTCLDY    81  70  69 E6        30.10S
WAYCROSS       CLOUDY    79  70  73 E10       30.10F
JESUP          NOT AVBL
BAXLEY         CLOUDY    77  73  88 E12G21    30.11S
BRUNSWICK      LGT RAIN  73  70  88 SE7       30.13S
SAINT SIMONS   NOT AVBL

$$

SCZ027-028-034-036>038-045-046-048>050-GAZ119-141-222300-
...LAKE AND SUPPLEMENTAL COASTAL OBSERVATIONS...

STATION/POSITION TIME  TEMP    WIND        PRES    WAVE   SWELL
                       AIR SEA DIR/SP/G            HT/PER HT/PER/DIR
                 (UTC) (F)     (DEG/KT/KT) (MB)    (FT/S) (FT/S/D)
WINYAH BAY       2145   76      90/  9     1023.0S
LAKE MURRAY      2150   75      CALM  /  2 1022.0S
ACE BASIN NERRS  2145   72        CALM     1022.0S
FORT PULASKI     2200   74 74   70/ 11/ 13 1021.3
SAPELO ISLAND    NOT AVBL

$$

ANZ835-935-AMZ111-154-330-350-352-354-370-450-454-472-222300-
...C-MAN AND BUOY OBSERVATIONS...

STATION/POSITION TIME  TEMP    WIND        PRES    WAVE   SWELL
                       AIR SEA DIR/SP/G            HT/PER HT/PER/DIR
                 (UTC) (F)     (DEG/KT/KT) (MB)    (FT/S) (FT/S/D)
BUOY 41004       2210   75 79  100/ 16/ 19 1021.7
BUOY 41008       2150   76 78  140/ 12/ 16 1020.2F   5/ 7   3/100/ 7
FOLLY BEACH CMAN 2200   75      90/ 18/ 20 1022.4F
CAPERS NEARSHORE 2208   72 73  110/ 16/ 23 1021.7F
FRIPP NEARSHORE  2208   75      50/  4/  8   N/A


STATION/POSITION TIME  TEMP    WIND        PRES    WAVE   SWELL
                       AIR SEA DIR/SP/G            HT/PER HT/PER/DIR
                 (UTC) (F)     (DEG/KT/KT) (MB)    (FT/S) (FT/S/D)
5E ST. MARYS GA  2200      76                N/A     6/ 8
FRYING PAN BUOY  2210   77 77   90/ 12/ 14 1023.5
BUOY 41025       2150   76 81   90/  6/  8 1025.7R   3/ 9   3/110/ 9
CAPE LOOKOUT NC  2200   75      80/ 10/ 12 1024.8F
BUOY 41002       2150   76 80   90/ 12/ 14 1024.0R   4/ 9   3/100/ 9
BUOY 41010       NOT AVBL
ST AUGUSTINE FL  2200   78 78  110/ 12/ 14 1018.9F


$$



USA.gov is the U.S. government's official web portal to all federal, state and local government web resources and services.